[[{"header":{"parameterUnit":"m.s-1","parameterCategory":2,"la1":30.2991,"la2":30.254,"lo1":-89.0895,"lo2":-89.0444,"dy":0.0017,"dx":0.0017,"nx":28,"ny":28,"refTime":"2024-03-03T09:00:00:Z","depth":"0","parameterNumber":2,"parameterNumberName":"U-component_of_CURRENTS"},"data":[0,0,0,0,0,0,0,0,0,0,0,0,0,0,0,0,0,0,0,0,0,0,0,0,0,0,0,0,0,0,0,0,0,0,0,0,0,0,0,0,0,0,0,0,0,0,0,0,0,0,0,0,0,0,0,0,0,0,0.2366,0.2367,0,0.2454,0.2455,0.2456,0.248,0.2479,0.2479,0.2478,0.2514,0.2516,0.2517,0,0,0,0,0,0,0,0,0,0,0,0,0,0.2272,0.2273,0.2366,0.2367,0.2368,0.2454,0.2455,0.2456,0.248,0.2479,0.2479,0.2478,0.2514,0.2515,0.2517,0,0,0,0,0,0,0,0,0,0,0,0,0,0.2331,0.2274,0.2366,0.2391,0.2394,0.2453,0.2455,0.2456,0.248,0.2479,0.2479,0.2478,0.2513,0.2515,0.2517,0.2543,0,0,0.2524,0.2524,0,0,0,0,0,0,0,0,0.2327,0.2334,0.2386,0.2389,0.2393,0.2456,0.2435,0.2483,0.248,0.2447,0.2478,0.2478,0.2491,0.2495,0.2512,0.2545,0.2546,0.2524,0.2525,0.2526,0.2526,0,0,0,0,0,0,0,0.2323,0.2331,0.24,0.2387,0.2392,0.2416,0.2423,0.2445,0.247,0.2449,0.2452,0.2463,0.2492,0.251,0.2513,0.2547,0.2524,0.2525,0.2527,0.2528,0.2651,0.2653,0,0,0,0,0,0,0.2312,0.2327,0.2397,0.2403,0.2359,0.2418,0.2426,0.2436,0.2471,0.2476,0.2463,0.2463,0.2507,0.2511,0.2515,0.2582,0.2526,0.2528,0.2529,0.2649,0.2652,0.2654,0,0,0,0,0,0,0.231,0.2317,0.2394,0.2367,0.2379,0.242,0.2431,0.2438,0.2457,0.2482,0.2486,0.2475,0.2507,0.2512,0.255,0.2581,0.2529,0.2531,0.2647,0.265,0.2653,0.2693,0,0,0,0,0,0,0.2307,0.2316,0.2322,0.2367,0.238,0.2448,0.2432,0.244,0.2465,0.2466,0.2494,0.2496,0.2507,0.2547,0.2552,0.2583,0.2532,0.2644,0.2648,0.2652,0.2689,0.2697,0.2704,0,0,0,0,0,0.2303,0.233,0.2321,0.233,0.2385,0.245,0.246,0.2486,0.2466,0.2495,0.2507,0.2496,0.2575,0.2551,0.2556,0.2588,0.2642,0.2647,0.2651,0.2686,0.2696,0.2704,0,0,0,0,0,0,0.231,0.2336,0.2328,0.2364,0.2405,0.2455,0.2489,0.2487,0.2519,0.2514,0.2519,0.2525,0.2574,0.2578,0.255,0.2638,0.2608,0.2614,0.2633,0.2642,0.2649,0.267,0.2534,0,0,0,0,0,0.2307,0.2325,0.236,0.2392,0.2413,0.2442,0.2468,0.2481,0.2514,0.2527,0.2539,0.2561,0.26,0.2615,0.2648,0.2689,0.2715,0.2716,0.2723,0.2729,0.2753,0.2806,0.282,0.2669,0.2669,0.2669,0,0,0.2319,0.2337,0.2348,0.2393,0.2427,0.247,0.2458,0.2508,0.2539,0.2526,0.2571,0.2587,0.2618,0.2674,0.2696,0.2677,0.2791,0.2735,0.274,0.276,0.2812,0.2827,0.284,0.2672,0.2671,0.2671,0,0,0.2361,0.2371,0.2396,0.2431,0.2476,0.25,0.251,0.2551,0.257,0.2617,0.2617,0.2656,0.27,0.2736,0.2758,0.2827,0.283,0.2829,0.288,0.2931,0.2943,0.2955,0.3021,0.3038,0.2829,0.2829,0.2829,0,0.2373,0.2402,0.2421,0.2461,0.2493,0.251,0.2552,0.2586,0.263,0.2655,0.264,0.2726,0.2741,0.2819,0.2846,0.2845,0.2875,0.2837,0.2939,0.2951,0.2962,0.3028,0.3046,0.2831,0.2831,0.2831,0.2831,0,0.2427,0.2453,0.2485,0.2525,0.2567,0.2615,0.2655,0.2689,0.2699,0.2727,0.2799,0.2827,0.2878,0.2889,0.2892,0.2978,0.2976,0.2942,0.2912,0.298,0.3045,0.3063,0.2835,0.2834,0.2833,0.2833,0,0,0.244,0.2504,0.251,0.2529,0.2599,0.2635,0.2704,0.2769,0.2809,0.2852,0.291,0.2981,0.2984,0.3011,0.3012,0.3057,0.316,0.3035,0.3036,0.3095,0.3291,0.3348,0.3372,0.3134,0.3137,0.3139,0.331,0,0.2472,0.2532,0.2564,0.2628,0.2662,0.2708,0.2771,0.2831,0.288,0.2942,0.2987,0.3049,0.3034,0.3056,0.3103,0.3144,0.3209,0.3119,0.3224,0.3229,0.3264,0.3396,0.3266,0.3412,0.3328,0.3331,0.3333,0,0.2501,0.2534,0.2592,0.2659,0.2681,0.2724,0.2813,0.2871,0.2973,0.3018,0.3089,0.3121,0.3214,0.3172,0.3306,0.3246,0.3288,0.3315,0.3321,0.3376,0.332,0.333,0.3448,0.3345,0.3361,0.3359,0.3357,0,0.2473,0.255,0.2587,0.2613,0.27,0.2735,0.2784,0.2887,0.294,0.3064,0.3113,0.3222,0.3272,0.3347,0.3426,0.3368,0.357,0.3487,0.3588,0.3592,0.3509,0.3501,0.3534,0.36,0.3599,0.3599,0.3598,0,0.2483,0.251,0.2569,0.2589,0.2637,0.2709,0.2776,0.2854,0.296,0.3054,0.3134,0.323,0.3315,0.3431,0.3482,0.3629,0.3626,0.3653,0.3659,0.3522,0.3514,0.344,0.3393,0.3605,0.3604,0.3603,0.3601,0,0.2446,0.2489,0.2529,0.2603,0.2622,0.2654,0.2745,0.2809,0.2914,0.3038,0.3084,0.3249,0.344,0.3542,0.3694,0.3712,0.3745,0.3878,0.3734,0.3722,0.37,0.3661,0.3617,0.3511,0.4017,0.402,0.4022,0,0.2429,0.2446,0.251,0.2532,0.2561,0.2611,0.2665,0.2774,0.2862,0.3071,0.3145,0.3349,0.3514,0.3769,0.388,0.4035,0.3867,0.3974,0.3848,0.3743,0.3702,0.3513,0.341,0.375,0.375,0.3749,0.3749,0,0.239,0.2414,0.2443,0.2486,0.253,0.258,0.2669,0.2708,0.2884,0.2999,0.3194,0.333,0.3633,0.3765,0.3985,0.404,0.3786,0.398,0.3885,0.3548,0.3326,0.3211,0.3604,0.3748,0.3748,0.3749,0.3749,0.3749,0.2349,0.2359,0.2398,0.244,0.2488,0.2539,0.255,0.2672,0.2776,0.2943,0.3153,0.3327,0.3575,0.3881,0.3928,0.3914,0.3855,0.3782,0.3764,0.3595,0.3433,0.3868,0.4009,0.4011,0.4012,0.4013,0.4014,0,0.2302,0.2323,0.2356,0.2395,0.2423,0.2475,0.2555,0.2563,0.2652,0.2866,0.303,0.3288,0.3454,0.3622,0.3775,0.3692,0.3452,0.3576,0.3227,0.3151,0.3559,0.3485,0.3501,0.3501,0.3501,0.3501,0.3501,0.3501,0.2274,0.2286,0.2313,0.2322,0.2348,0.234,0.2358,0.2395,0.2503,0.265,0.2808,0.2998,0.3293,0.353,0.3527,0.3445,0.3159,0.3048,0.3022,0.3268,0.3281,0.3293,0.3211,0.3168,0.3168,0.2426,0.2421,0.2417]},{"header":{"parameterUnit":"m.s-1","parameterCategory":2,"la1":30.2991,"la2":30.254,"lo1":-89.0895,"lo2":-89.0444,"dy":0.0017,"dx":0.0017,"nx":28,"ny":28,"refTime":"2024-03-03T09:00:00:Z","depth":"0","parameterNumber":3,"parameterNumberName":"V-component_of_CURRENTS"},"data":[0,0,0,0,0,0,0,0,0,0,0,0,0,0,0,0,0,0,0,0,0,0,0,0,0,0,0,0,0,0,0,0,0,0,0,0,0,0,0,0,0,0,0,0,0,0,0,0,0,0,0,0,0,0,0,0,0,0,-0.0482,-0.0483,0,-0.0563,-0.0564,-0.0565,-0.0652,-0.0654,-0.0655,-0.0656,-0.0612,-0.0609,-0.0607,0,0,0,0,0,0,0,0,0,0,0,0,0,-0.0388,-0.0389,-0.0482,-0.0483,-0.0485,-0.0563,-0.0564,-0.0565,-0.0652,-0.0654,-0.0656,-0.0657,-0.0613,-0.061,-0.0607,0,0,0,0,0,0,0,0,0,0,0,0,0,-0.0444,-0.039,-0.0482,-0.0539,-0.0545,-0.0563,-0.0564,-0.0565,-0.0652,-0.0654,-0.0656,-0.0658,-0.0614,-0.061,-0.0606,-0.0542,0,0,-0.0595,-0.0593,0,0,0,0,0,0,0,0,-0.044,-0.0447,-0.0529,-0.0535,-0.0541,-0.0601,-0.0515,-0.0552,-0.0651,-0.061,-0.0656,-0.0659,-0.0596,-0.0594,-0.0604,-0.054,-0.0538,-0.0595,-0.0592,-0.0591,-0.059,0,0,0,0,0,0,0,-0.0436,-0.0444,-0.0513,-0.053,-0.0538,-0.0555,-0.0565,-0.0522,-0.0587,-0.0613,-0.062,-0.0631,-0.0598,-0.0608,-0.0603,-0.0537,-0.0595,-0.0591,-0.0589,-0.0588,-0.048,-0.0479,0,0,0,0,0,0,-0.0428,-0.044,-0.051,-0.0516,-0.0497,-0.0555,-0.0566,-0.0579,-0.059,-0.0595,-0.0629,-0.0635,-0.0613,-0.0608,-0.0602,-0.0548,-0.0591,-0.0587,-0.0585,-0.048,-0.048,-0.0479,0,0,0,0,0,0,-0.0425,-0.0433,-0.0507,-0.0481,-0.0492,-0.0554,-0.0568,-0.0579,-0.0594,-0.0604,-0.0607,-0.0633,-0.0614,-0.0607,-0.0588,-0.0546,-0.0586,-0.0582,-0.0481,-0.048,-0.0479,-0.0426,0,0,0,0,0,0,-0.0422,-0.0432,-0.0422,-0.048,-0.0493,-0.0502,-0.0566,-0.0579,-0.0597,-0.0606,-0.0606,-0.0605,-0.0616,-0.0594,-0.0584,-0.0542,-0.0579,-0.0482,-0.0481,-0.048,-0.0428,-0.0423,-0.0419,0,0,0,0,0,-0.0419,-0.0392,-0.0421,-0.0429,-0.0483,-0.05,-0.0507,-0.0558,-0.0595,-0.0583,-0.0613,-0.0606,-0.058,-0.059,-0.0579,-0.0535,-0.0482,-0.0481,-0.048,-0.0431,-0.0424,-0.0419,0,0,0,0,0,0,-0.0332,-0.0401,-0.0433,-0.0426,-0.0457,-0.0516,-0.0501,-0.0547,-0.0562,-0.0569,-0.0593,-0.0592,-0.0563,-0.0556,-0.0568,-0.0505,-0.0529,-0.0525,-0.0496,-0.0489,-0.0485,-0.0471,-0.0576,0,0,0,0,0,-0.0311,-0.0315,-0.038,-0.0367,-0.0379,-0.044,-0.045,-0.0491,-0.0521,-0.0532,-0.0543,-0.055,-0.0544,-0.0527,-0.0519,-0.0467,-0.0491,-0.0435,-0.043,-0.0426,-0.041,-0.0453,-0.0451,-0.0474,-0.0474,-0.0474,0,0,-0.0273,-0.0308,-0.0311,-0.0349,-0.0375,-0.037,-0.045,-0.0458,-0.0455,-0.0516,-0.0498,-0.0527,-0.0531,-0.0499,-0.0482,-0.0487,-0.0429,-0.0424,-0.042,-0.0406,-0.0451,-0.0449,-0.0447,-0.0473,-0.0473,-0.0474,0,0,-0.0192,-0.0229,-0.0208,-0.0227,-0.0266,-0.0304,-0.0304,-0.0362,-0.0387,-0.0385,-0.0438,-0.0454,-0.0425,-0.0439,-0.0438,-0.0391,-0.041,-0.038,-0.0327,-0.0369,-0.0368,-0.0367,-0.0385,-0.0386,-0.0368,-0.0368,-0.0368,0,-0.0141,-0.0135,-0.0197,-0.0177,-0.0182,-0.0268,-0.0242,-0.0267,-0.0315,-0.0329,-0.0366,-0.039,-0.0396,-0.0376,-0.0375,-0.0376,-0.0404,-0.0348,-0.0363,-0.0363,-0.0363,-0.0382,-0.0384,-0.0365,-0.0365,-0.0366,-0.0366,0,-0.0053,-0.0047,-0.0026,-0.0041,-0.0046,-0.0036,-0.0091,-0.0105,-0.0157,-0.0202,-0.0217,-0.0264,-0.0283,-0.0287,-0.0314,-0.0306,-0.0327,-0.0362,-0.0378,-0.0357,-0.0379,-0.0382,-0.0361,-0.0362,-0.0363,-0.0364,0,0,0.0046,0.0034,0.0039,0.0046,0.0019,0.0016,0.0032,0.0005,-0.0005,-0.0058,-0.0071,-0.0095,-0.016,-0.0164,-0.021,-0.0246,-0.0273,-0.0296,-0.03,-0.0313,-0.0355,-0.0295,-0.0293,-0.0323,-0.0323,-0.0323,-0.0366,0,0.0129,0.0185,0.0156,0.0209,0.0227,0.0164,0.0179,0.0143,0.0091,0.0059,-0.0014,-0.0037,-0.0099,-0.0122,-0.0166,-0.0251,-0.028,-0.0257,-0.0374,-0.0376,-0.0325,-0.0294,-0.0252,-0.0281,-0.037,-0.037,-0.0371,0,0.0217,0.0236,0.03,0.0299,0.0301,0.0319,0.0298,0.0298,0.0234,0.0192,0.0139,0.0068,0.0022,-0.0052,-0.0166,-0.0153,-0.0239,-0.0312,-0.0316,-0.0277,-0.0321,-0.0319,-0.0284,-0.0468,-0.0376,-0.0375,-0.0375,0,0.0294,0.0331,0.038,0.0386,0.038,0.039,0.0379,0.0334,0.0328,0.027,0.0253,0.0166,0.0133,0.0004,-0.0122,-0.0158,-0.0254,-0.0326,-0.0348,-0.0345,-0.0337,-0.0331,-0.0489,-0.0407,-0.0407,-0.0407,-0.0406,0,0.0377,0.0414,0.0414,0.0438,0.0479,0.0454,0.0474,0.0446,0.0413,0.0438,0.0324,0.0332,0.014,0.0063,-0.0084,-0.0192,-0.0219,-0.0319,-0.0347,-0.0314,-0.0306,-0.0487,-0.0604,-0.0408,-0.0408,-0.0408,-0.0407,0,0.0443,0.0451,0.0498,0.0508,0.0512,0.0536,0.0533,0.0548,0.0512,0.0543,0.0537,0.0454,0.0388,0.0214,0.0032,-0.0108,-0.0333,-0.0279,-0.0204,-0.0221,-0.0421,-0.0534,-0.0683,-0.0773,-0.0327,-0.0325,-0.0324,0,0.0479,0.0513,0.0544,0.0569,0.0572,0.0596,0.0618,0.0596,0.0629,0.0645,0.0684,0.0631,0.0655,0.042,0.0178,-0.0033,-0.0248,-0.0182,-0.0243,-0.0401,-0.0552,-0.0632,-0.0706,-0.022,-0.0218,-0.0217,-0.0216,0,0.0538,0.0547,0.0576,0.0628,0.0665,0.0707,0.0748,0.0794,0.0814,0.0888,0.0997,0.1024,0.0834,0.0659,0.0349,0.0172,-0.0301,-0.0155,-0.0362,-0.0497,-0.0556,-0.0665,-0.0216,-0.0202,-0.0203,-0.0204,-0.0205,-0.0206,0.0569,0.0599,0.0637,0.069,0.0743,0.0831,0.0905,0.0996,0.1122,0.1302,0.1295,0.1433,0.1072,0.0687,0.039,-0.0132,-0.0171,-0.0317,-0.0446,-0.0514,-0.0589,-0.0076,-0.0065,-0.0066,-0.0066,-0.0067,-0.0067,0,0.0608,0.0646,0.0696,0.0778,0.0869,0.0878,0.1009,0.1133,0.1363,0.1564,0.1737,0.1691,0.1243,0.0723,0.001,-0.0373,-0.0554,-0.0604,-0.0758,-0.0826,-0.0404,-0.0386,-0.0392,-0.0392,-0.0392,-0.0392,-0.0392,-0.0391,0.0632,0.0691,0.0723,0.0879,0.0953,0.1109,0.1212,0.1425,0.1605,0.1924,0.2074,0.2138,0.1714,0.0382,-0.0551,-0.0775,-0.1082,-0.1094,-0.1285,-0.105,-0.1035,-0.1021,-0.1033,-0.1174,-0.1175,-0.1648,-0.1653,-0.1657]}],[{"header":{"parameterUnit":"m.s-1","parameterCategory":2,"la1":30.2991,"la2":30.254,"lo1":-89.0895,"lo2":-89.0444,"dy":0.0017,"dx":0.0017,"nx":28,"ny":28,"refTime":"2024-03-03T09:00:00:Z","depth":"2","parameterNumber":2,"parameterNumberName":"U-component_of_CURRENTS"},"data":[0,0,0,0,0,0,0,0,0,0,0,0,0,0,0,0,0,0,0,0,0,0,0,0,0,0,0,0,0,0,0,0,0,0,0,0,0,0,0,0,0,0,0,0,0,0,0,0,0,0,0,0,0,0,0,0,0,0,0.2057,0.2058,0,0.2093,0.2093,0.2093,0.2084,0.2084,0.2084,0.2084,0.2108,0.2109,0.2109,0,0,0,0,0,0,0,0,0,0,0,0,0,0.1952,0.1954,0.2056,0.2058,0.2059,0.2094,0.2093,0.2092,0.2084,0.2084,0.2084,0.2085,0.2108,0.2109,0.2109,0,0,0,0,0,0,0,0,0,0,0,0,0,0.1984,0.1954,0.2056,0.2067,0.2069,0.2094,0.2093,0.2092,0.2084,0.2084,0.2084,0.2085,0.2108,0.2109,0.2109,0.2106,0,0,0.2111,0.2111,0,0,0,0,0,0,0,0,0.1983,0.1987,0.2064,0.2066,0.2069,0.2094,0.2066,0.21,0.2084,0.2067,0.2084,0.2085,0.2109,0.2109,0.2101,0.2107,0.2108,0.2111,0.2112,0.2112,0.2112,0,0,0,0,0,0,0,0.198,0.1985,0.206,0.2065,0.2069,0.2062,0.2065,0.2071,0.2077,0.2068,0.207,0.2091,0.2109,0.21,0.2101,0.2108,0.2111,0.2112,0.2112,0.2112,0.2173,0.2174,0,0,0,0,0,0,0.1998,0.1983,0.2059,0.2063,0.2037,0.2064,0.2068,0.2077,0.2077,0.2081,0.2091,0.2091,0.2099,0.2101,0.2102,0.2152,0.2112,0.2112,0.2113,0.2172,0.2174,0.2175,0,0,0,0,0,0,0.1995,0.2004,0.2058,0.2033,0.2041,0.2067,0.2076,0.2077,0.208,0.2096,0.2098,0.2094,0.2099,0.2101,0.2128,0.2151,0.2113,0.2113,0.2171,0.2172,0.2174,0.2217,0,0,0,0,0,0,0.1992,0.2002,0.2003,0.2034,0.2043,0.2085,0.2077,0.2078,0.2097,0.2096,0.21,0.2102,0.21,0.2128,0.2129,0.2151,0.2114,0.2169,0.2171,0.2174,0.2214,0.222,0.2225,0,0,0,0,0,0.1988,0.1998,0.2002,0.2012,0.2047,0.2087,0.2089,0.2102,0.2097,0.2102,0.2112,0.2102,0.2144,0.2129,0.2131,0.2153,0.2168,0.2171,0.2173,0.2211,0.2219,0.2225,0,0,0,0,0,0,0.1957,0.2,0.2005,0.2028,0.2061,0.2089,0.2102,0.2107,0.2114,0.2115,0.2116,0.2119,0.2152,0.2148,0.2132,0.2179,0.2155,0.2158,0.2183,0.219,0.2195,0.2201,0.2114,0,0,0,0,0,0.1952,0.1969,0.2011,0.2032,0.205,0.2072,0.2087,0.2099,0.212,0.2122,0.2131,0.2142,0.2161,0.2172,0.2184,0.2207,0.2235,0.2224,0.2229,0.2234,0.2241,0.2328,0.2342,0.2184,0.2184,0.2184,0,0,0.1949,0.1977,0.1986,0.2027,0.2049,0.2075,0.2079,0.2112,0.2132,0.2125,0.2148,0.2161,0.2173,0.2203,0.2217,0.2204,0.2291,0.2238,0.2242,0.2246,0.2332,0.2348,0.2362,0.2186,0.2186,0.2185,0,0,0.1957,0.1976,0.1989,0.2017,0.2064,0.2083,0.2096,0.213,0.2143,0.2174,0.2177,0.2208,0.2228,0.2246,0.2257,0.23,0.2319,0.2303,0.2337,0.2422,0.2436,0.2449,0.2493,0.251,0.2307,0.2307,0.2307,0,0.1945,0.1975,0.2001,0.2025,0.2056,0.2088,0.2114,0.2132,0.217,0.2195,0.219,0.2247,0.225,0.2301,0.2315,0.2313,0.2357,0.2309,0.2431,0.2444,0.2456,0.2499,0.2517,0.2309,0.2309,0.2309,0.2308,0,0.1966,0.1988,0.2007,0.2044,0.2072,0.211,0.215,0.2181,0.2204,0.2227,0.2287,0.2302,0.2344,0.2347,0.2343,0.2428,0.2428,0.2429,0.2415,0.2475,0.2516,0.2534,0.2312,0.2312,0.2311,0.231,0,0,0.1941,0.2006,0.201,0.203,0.209,0.2115,0.2166,0.2225,0.2272,0.2301,0.237,0.2391,0.2413,0.2427,0.2434,0.2493,0.2605,0.2501,0.2505,0.2547,0.2783,0.2728,0.2741,0.2644,0.2647,0.265,0.2773,0,0.195,0.199,0.2027,0.2069,0.2094,0.2151,0.2196,0.2249,0.231,0.2384,0.2417,0.2477,0.2441,0.2479,0.2534,0.2596,0.2656,0.257,0.2717,0.272,0.2666,0.2762,0.2542,0.263,0.279,0.2793,0.2795,0,0.1954,0.1982,0.2025,0.2088,0.2106,0.214,0.2239,0.2288,0.2397,0.2451,0.2525,0.256,0.264,0.2614,0.2745,0.27,0.2748,0.2782,0.2789,0.2735,0.2699,0.2598,0.2656,0.2825,0.2822,0.282,0.2818,0,0.1918,0.1978,0.2015,0.2037,0.2114,0.2155,0.2205,0.2308,0.2383,0.2512,0.2591,0.2673,0.2754,0.2819,0.2878,0.2838,0.3033,0.2986,0.2972,0.2967,0.2806,0.2781,0.3098,0.3097,0.3097,0.3097,0.3096,0,0.1912,0.1934,0.2004,0.2021,0.2076,0.2136,0.2232,0.2301,0.2444,0.2538,0.2624,0.2723,0.2823,0.293,0.2946,0.3023,0.3095,0.3002,0.3014,0.2811,0.2787,0.297,0.2953,0.3101,0.31,0.3099,0.3099,0,0.1866,0.1914,0.1955,0.2034,0.2062,0.2103,0.2244,0.2319,0.2455,0.2597,0.2645,0.2819,0.2945,0.3021,0.3157,0.3127,0.3187,0.3195,0.2932,0.291,0.3037,0.3022,0.3182,0.3182,0.3181,0.3181,0.3181,0,0.1846,0.1865,0.1948,0.1984,0.2026,0.2108,0.217,0.231,0.2394,0.2634,0.2686,0.2885,0.2964,0.3138,0.3157,0.3196,0.3232,0.3008,0.2878,0.306,0.3056,0.3041,0.3026,0.2674,0.267,0.2666,0.2664,0,0.1811,0.1849,0.189,0.1953,0.2017,0.209,0.2182,0.2249,0.2418,0.253,0.2679,0.2771,0.2959,0.2924,0.3016,0.2994,0.2973,0.2934,0.3248,0.2682,0.259,0.2583,0.2584,0.2631,0.2634,0.2637,0.2639,0.264,0.1791,0.1807,0.1866,0.1927,0.199,0.2043,0.2081,0.2168,0.2267,0.239,0.2542,0.2607,0.2706,0.2723,0.2677,0.2667,0.2845,0.2709,0.2717,0.2729,0.2643,0.2556,0.2573,0.2575,0.2578,0.258,0.2582,0,0.1749,0.1779,0.1834,0.1893,0.192,0.1989,0.2064,0.2059,0.2096,0.2234,0.2311,0.219,0.2216,0.2318,0.2261,0.2278,0.2215,0.2182,0.2077,0.2114,0.2145,0.2024,0.1792,0.1789,0.1786,0.1783,0,0,0.1729,0.1756,0.1782,0.1809,0.1847,0.1854,0.1876,0.1854,0.1905,0.1888,0.1925,0.2114,0.2257,0.1982,0.1976,0.1877,0.1965,0.1806,0.2452,0.2367,0.2394,0.2479,0.234,0,0,0,0,0]},{"header":{"parameterUnit":"m.s-1","parameterCategory":2,"la1":30.2991,"la2":30.254,"lo1":-89.0895,"lo2":-89.0444,"dy":0.0017,"dx":0.0017,"nx":28,"ny":28,"refTime":"2024-03-03T09:00:00:Z","depth":"2","parameterNumber":3,"parameterNumberName":"V-component_of_CURRENTS"},"data":[0,0,0,0,0,0,0,0,0,0,0,0,0,0,0,0,0,0,0,0,0,0,0,0,0,0,0,0,0,0,0,0,0,0,0,0,0,0,0,0,0,0,0,0,0,0,0,0,0,0,0,0,0,0,0,0,0,0,-0.0019,-0.0021,0,-0.0116,-0.0117,-0.0118,-0.0169,-0.0169,-0.0169,-0.017,-0.0226,-0.0227,-0.0229,0,0,0,0,0,0,0,0,0,0,0,0,0,0.0042,0.0041,-0.0019,-0.0021,-0.0022,-0.0116,-0.0117,-0.0119,-0.0169,-0.0169,-0.0169,-0.017,-0.0226,-0.0227,-0.0229,0,0,0,0,0,0,0,0,0,0,0,0,0,-0.0012,0.0041,-0.0019,-0.0059,-0.0064,-0.0116,-0.0118,-0.0119,-0.0169,-0.0169,-0.017,-0.017,-0.0225,-0.0227,-0.0229,-0.0236,0,0,-0.0235,-0.0236,0,0,0,0,0,0,0,0,-0.0009,-0.0014,-0.0052,-0.0057,-0.0062,-0.0132,-0.0117,-0.0157,-0.0169,-0.0128,-0.017,-0.017,-0.0191,-0.0196,-0.0213,-0.0239,-0.0241,-0.0235,-0.0237,-0.0238,-0.0238,0,0,0,0,0,0,0,-0.0005,-0.001,-0.0057,-0.0054,-0.006,-0.01,-0.0107,-0.0125,-0.0155,-0.0131,-0.0136,-0.0148,-0.0194,-0.0211,-0.0214,-0.0242,-0.0235,-0.0237,-0.0238,-0.0239,-0.0279,-0.0279,0,0,0,0,0,0,0.0009,-0.0006,-0.0054,-0.006,-0.0037,-0.0101,-0.0109,-0.0108,-0.0156,-0.0164,-0.0148,-0.015,-0.0207,-0.0212,-0.0217,-0.0222,-0.0238,-0.0239,-0.0241,-0.028,-0.0279,-0.0279,0,0,0,0,0,0,0.0011,0.0007,-0.005,-0.0037,-0.0047,-0.0101,-0.0101,-0.011,-0.0126,-0.0169,-0.0177,-0.0154,-0.0208,-0.0214,-0.0232,-0.0225,-0.024,-0.0242,-0.028,-0.028,-0.0279,-0.0236,0,0,0,0,0,0,0.0014,0.0008,0.0015,-0.0035,-0.0047,-0.0074,-0.0101,-0.0112,-0.0134,-0.0138,-0.0177,-0.0183,-0.0208,-0.0229,-0.0234,-0.0228,-0.0244,-0.028,-0.028,-0.0279,-0.0238,-0.0235,-0.0232,0,0,0,0,0,0.0017,0.0021,0.0017,0.0011,-0.0036,-0.0074,-0.0084,-0.0123,-0.0134,-0.0139,-0.0167,-0.0182,-0.0231,-0.0231,-0.0237,-0.0231,-0.028,-0.028,-0.0279,-0.0239,-0.0235,-0.0232,0,0,0,0,0,0,0.0041,0.0015,0.0009,0.0004,-0.0027,-0.0083,-0.0095,-0.0117,-0.0145,-0.0144,-0.0182,-0.019,-0.0203,-0.0222,-0.0221,-0.0242,-0.0257,-0.0258,-0.0225,-0.0221,-0.0218,-0.0202,-0.0245,0,0,0,0,0,0.0055,0.0056,0.002,0.0014,0.0004,-0.004,-0.006,-0.0083,-0.0117,-0.013,-0.0159,-0.0186,-0.0208,-0.0218,-0.0241,-0.0251,-0.0269,-0.0251,-0.0247,-0.0245,-0.0236,-0.0267,-0.0266,-0.0278,-0.0278,-0.0278,0,0,0.006,0.0046,0.0045,0.0021,-0.0005,-0.0015,-0.0052,-0.0076,-0.0084,-0.0129,-0.0146,-0.0176,-0.0208,-0.0223,-0.023,-0.0237,-0.0249,-0.0244,-0.0242,-0.0235,-0.0267,-0.0265,-0.0264,-0.0278,-0.0278,-0.0278,0,0,0.007,0.0064,0.0071,0.0054,0.0025,0.0002,0.0,-0.0045,-0.0062,-0.0083,-0.0116,-0.0142,-0.0176,-0.0201,-0.0216,-0.0209,-0.0233,-0.0214,-0.0185,-0.0215,-0.0214,-0.0214,-0.0227,-0.0228,-0.0212,-0.0211,-0.0211,0,0.0081,0.0087,0.0064,0.0065,0.0056,0.0016,0.0021,-0.0004,-0.0051,-0.0057,-0.0079,-0.0133,-0.0165,-0.0181,-0.0184,-0.0201,-0.0217,-0.0195,-0.021,-0.021,-0.0211,-0.0224,-0.0226,-0.0209,-0.021,-0.021,-0.021,0,0.0096,0.0103,0.0102,0.0103,0.0091,0.0084,0.0055,0.0043,0.002,-0.0006,-0.003,-0.0083,-0.0112,-0.0131,-0.0157,-0.0171,-0.018,-0.0204,-0.0217,-0.0207,-0.0222,-0.0224,-0.0206,-0.0207,-0.0208,-0.0208,0,0,0.0121,0.0118,0.012,0.0134,0.0114,0.0109,0.0104,0.0091,0.01,0.0046,0.0047,-0.0013,-0.0041,-0.0061,-0.0101,-0.0134,-0.0155,-0.0165,-0.0168,-0.0173,-0.0208,-0.0221,-0.0226,-0.0182,-0.0183,-0.0183,-0.0215,0,0.0145,0.0167,0.0155,0.0178,0.0191,0.0165,0.017,0.0154,0.0132,0.0124,0.0064,0.0052,-0.0014,-0.0021,-0.0068,-0.0126,-0.0161,-0.0143,-0.0222,-0.0223,-0.0233,-0.0229,-0.0204,-0.0231,-0.0217,-0.0218,-0.0218,0,0.0169,0.0185,0.0214,0.0236,0.0241,0.0249,0.0263,0.0263,0.024,0.0224,0.0188,0.0145,0.0096,0.0038,-0.0066,-0.005,-0.0124,-0.018,-0.0183,-0.0211,-0.0242,-0.0242,-0.0236,-0.0223,-0.0222,-0.0222,-0.0222,0,0.0208,0.0229,0.026,0.0263,0.0278,0.0292,0.0303,0.0295,0.0319,0.0295,0.0315,0.023,0.0213,0.01,-0.0023,-0.0041,-0.0135,-0.0174,-0.0257,-0.0258,-0.026,-0.0261,-0.0252,-0.0252,-0.0252,-0.0252,-0.0252,0,0.0241,0.0267,0.0284,0.0301,0.0357,0.0346,0.0402,0.0397,0.0412,0.0465,0.0378,0.0402,0.0227,0.0152,0.0016,-0.0118,-0.0107,-0.0246,-0.0269,-0.0244,-0.0243,-0.0257,-0.0257,-0.0253,-0.0253,-0.0253,-0.0252,0,0.0275,0.0282,0.0326,0.0356,0.0377,0.0418,0.0483,0.0525,0.053,0.0597,0.0602,0.0538,0.044,0.0263,0.009,-0.0045,-0.0186,-0.024,-0.0191,-0.0209,-0.0299,-0.0296,-0.0333,-0.0333,-0.0334,-0.0335,-0.0335,0,0.0292,0.0317,0.0375,0.0419,0.0437,0.0501,0.0556,0.0582,0.0643,0.0695,0.0743,0.0668,0.0628,0.0366,0.0107,-0.0132,-0.017,-0.0258,-0.0302,-0.0289,-0.0308,-0.0304,-0.0301,-0.0283,-0.0283,-0.0283,-0.0283,0,0.0332,0.035,0.0392,0.0484,0.0551,0.0636,0.0721,0.079,0.0842,0.0899,0.0964,0.0934,0.0685,0.0439,0.0102,-0.0059,-0.0224,-0.0266,-0.0261,-0.0268,-0.0245,-0.0263,-0.0261,-0.0283,-0.0283,-0.0283,-0.0283,-0.0283,0.0366,0.0407,0.047,0.0561,0.065,0.0771,0.0855,0.0947,0.106,0.115,0.1116,0.1075,0.0793,0.0357,0.0074,-0.0224,-0.0223,-0.0325,-0.0323,-0.0322,-0.0313,-0.0293,-0.0336,-0.0336,-0.0337,-0.0337,-0.0337,0,0.0412,0.0464,0.0548,0.0666,0.0779,0.0812,0.097,0.1051,0.1192,0.1245,0.1273,0.1017,0.0737,0.042,-0.0026,-0.0293,-0.0317,-0.0366,-0.0337,-0.0335,-0.0334,-0.0325,-0.0351,-0.0352,-0.0353,-0.0354,0,0,0.044,0.0524,0.057,0.076,0.085,0.1007,0.1102,0.1211,0.1285,0.1326,0.1298,0.1211,0.0833,0.0514,0.0149,-0.01,-0.0154,-0.0147,-0.0107,-0.0028,-0.0023,-0.0283,-0.0263,0,0,0,0,0]}],[{"header":{"parameterUnit":"m.s-1","parameterCategory":2,"la1":30.2991,"la2":30.254,"lo1":-89.0895,"lo2":-89.0444,"dy":0.0017,"dx":0.0017,"nx":28,"ny":28,"refTime":"2024-03-03T09:00:00:Z","depth":"4","parameterNumber":2,"parameterNumberName":"U-component_of_CURRENTS"},"data":[0,0,0,0,0,0,0,0,0,0,0,0,0,0,0,0,0,0,0,0,0,0,0,0,0,0,0,0,0,0,0,0,0,0,0,0,0,0,0,0,0,0,0,0,0,0,0,0,0,0,0,0,0,0,0,0,0,0,0.1236,0.1236,0,0.1301,0.1301,0.1302,0.1342,0.1342,0.1343,0.1343,0.1422,0.1424,0.1426,0,0,0,0,0,0,0,0,0,0,0,0,0,0.1166,0.1167,0.1236,0.1236,0.1237,0.1301,0.1301,0.1302,0.1342,0.1342,0.1343,0.1343,0.1422,0.1424,0.1426,0,0,0,0,0,0,0,0,0,0,0,0,0,0.1209,0.1167,0.1235,0.1266,0.1269,0.13,0.1301,0.1302,0.1342,0.1342,0.1343,0.1343,0.1421,0.1424,0.1426,0.1434,0,0,0.1435,0.1436,0,0,0,0,0,0,0,0,0.1206,0.1211,0.126,0.1264,0.1267,0.1315,0.1306,0.1348,0.1342,0.1313,0.1343,0.1343,0.1388,0.1393,0.1403,0.1438,0.1441,0.1435,0.1437,0.1438,0.1439,0,0,0,0,0,0,0,0.1203,0.1209,0.126,0.1261,0.1266,0.1283,0.1289,0.1314,0.1347,0.1316,0.1319,0.1328,0.139,0.14,0.1405,0.1443,0.1435,0.1437,0.1439,0.144,0.1563,0.1565,0,0,0,0,0,0,0.1196,0.1206,0.1258,0.1262,0.1239,0.1284,0.1291,0.1298,0.1346,0.1354,0.1327,0.1329,0.1395,0.1402,0.1408,0.1496,0.1438,0.144,0.1442,0.1562,0.1564,0.1566,0,0,0,0,0,0,0.1194,0.12,0.1256,0.1237,0.1245,0.1284,0.1292,0.1299,0.1337,0.1355,0.1363,0.1361,0.1396,0.1404,0.1462,0.1497,0.1442,0.1444,0.156,0.1562,0.1565,0.1624,0,0,0,0,0,0,0.1192,0.1199,0.1216,0.1236,0.1246,0.1292,0.1292,0.13,0.134,0.1344,0.1386,0.1392,0.1397,0.1458,0.1464,0.15,0.1446,0.1558,0.1561,0.1564,0.162,0.1628,0.1635,0,0,0,0,0,0.1189,0.1206,0.1216,0.1224,0.1263,0.1294,0.1301,0.1329,0.1342,0.1364,0.1398,0.1393,0.1481,0.1462,0.1469,0.1506,0.1556,0.156,0.1564,0.1616,0.1626,0.1635,0,0,0,0,0,0,0.1188,0.1213,0.1224,0.1249,0.1278,0.1301,0.133,0.1345,0.1389,0.1404,0.1417,0.1427,0.1487,0.149,0.1467,0.155,0.1516,0.1522,0.1554,0.1563,0.1571,0.1553,0.1449,0,0,0,0,0,0.1193,0.1215,0.1239,0.1265,0.1281,0.1311,0.1333,0.1353,0.1386,0.1407,0.1436,0.147,0.1503,0.1529,0.1554,0.1604,0.1601,0.1631,0.1639,0.1645,0.1637,0.1656,0.1665,0.1578,0.1578,0.1577,0,0,0.1199,0.1219,0.1231,0.1267,0.1293,0.1321,0.1326,0.1369,0.1399,0.1409,0.1472,0.1499,0.1522,0.1576,0.1603,0.1588,0.1676,0.165,0.1655,0.1643,0.1661,0.1669,0.1677,0.158,0.158,0.1579,0,0,0.1216,0.1242,0.1264,0.1289,0.1333,0.1352,0.1369,0.1411,0.144,0.1497,0.1513,0.156,0.1616,0.1636,0.1652,0.1716,0.1713,0.1735,0.1765,0.1785,0.1792,0.1798,0.1834,0.1843,0.1742,0.1742,0.1742,0,0.1225,0.1253,0.1277,0.1304,0.133,0.1367,0.1397,0.143,0.1487,0.1513,0.1527,0.1613,0.1637,0.1692,0.172,0.1732,0.175,0.1729,0.1794,0.18,0.1804,0.184,0.1849,0.1745,0.1745,0.1744,0.1744,0,0.1248,0.1282,0.1301,0.1344,0.1374,0.1412,0.1451,0.1496,0.1538,0.1564,0.1638,0.1677,0.1723,0.1748,0.1758,0.1814,0.1819,0.1798,0.1767,0.1817,0.1852,0.186,0.175,0.1749,0.1748,0.1747,0,0,0.1235,0.1303,0.1312,0.1333,0.1401,0.1417,0.1483,0.1537,0.1569,0.1638,0.1683,0.1755,0.1778,0.1797,0.1823,0.1849,0.1916,0.1849,0.1848,0.1879,0.1984,0.1881,0.188,0.1912,0.1913,0.1914,0.2005,0,0.1251,0.1296,0.1335,0.1383,0.1407,0.1463,0.151,0.1564,0.1615,0.1667,0.1723,0.1777,0.1797,0.1833,0.1864,0.1902,0.1935,0.1894,0.1935,0.1937,0.1833,0.1884,0.1917,0.201,0.2012,0.2013,0.2014,0,0.1256,0.1285,0.1334,0.1391,0.1408,0.1446,0.1517,0.1568,0.1648,0.169,0.1758,0.1797,0.1877,0.1867,0.196,0.194,0.1967,0.1986,0.1989,0.1869,0.1847,0.1944,0.2028,0.2027,0.2026,0.2025,0.2024,0,0.1213,0.1279,0.1316,0.1337,0.1411,0.145,0.1501,0.1578,0.1624,0.1713,0.1761,0.1836,0.1907,0.1942,0.2014,0.1993,0.2097,0.2066,0.1998,0.1993,0.2032,0.2024,0.2106,0.2106,0.2106,0.2106,0.2105,0,0.12,0.1227,0.1298,0.1315,0.1355,0.1422,0.1482,0.154,0.1629,0.1684,0.1776,0.1834,0.193,0.2005,0.2031,0.2053,0.2118,0.2006,0.2003,0.206,0.2054,0.2039,0.203,0.2109,0.2108,0.2108,0.2107,0,0.1146,0.1202,0.1235,0.1311,0.1339,0.1367,0.1474,0.1507,0.1614,0.1693,0.1733,0.1865,0.1966,0.2047,0.2124,0.2083,0.21,0.2088,0.2176,0.2176,0.1979,0.1972,0.2003,0.2,0.1998,0.1996,0.1994,0,0.1122,0.1137,0.1213,0.1229,0.127,0.1331,0.1376,0.1488,0.1531,0.17,0.1727,0.1872,0.1951,0.1994,0.2073,0.2113,0.2089,0.2085,0.199,0.1971,0.1966,0.1963,0.196,0.199,0.1989,0.1988,0.1988,0,0.1063,0.11,0.1124,0.1163,0.1207,0.1248,0.1326,0.1349,0.1489,0.1602,0.1684,0.1746,0.1863,0.1929,0.1989,0.2005,0.2071,0.2057,0.2061,0.1972,0.1955,0.1952,0.1952,0.1979,0.198,0.1981,0.1981,0,0.1014,0.1011,0.1053,0.1073,0.1117,0.1137,0.1202,0.1268,0.1335,0.152,0.1549,0.1711,0.1844,0.1876,0.1925,0.1941,0.19,0.1823,0.1838,0.1849,0.1756,0.1709,0.1656,0,0,0,0,0,0.0955,0.0945,0.0957,0.0971,0.1008,0.1047,0.1145,0.1218,0.1363,0.138,0.1458,0.1555,0.1645,0.173,0.1717,0.1852,0.1902,0.1828,0.1818,0.193,0.194,0.1843,0,0,0,0,0,0,0.0913,0.0925,0.0924,0.0874,0.0872,0.0916,0.0982,0.1092,0.1113,0.1269,0.1332,0.1451,0.1566,0.1633,0.1682,0.1707,0.1668,0.1927,0.1923,0.1924,0.1933,0.1941,0.1846,0,0,0,0,0]},{"header":{"parameterUnit":"m.s-1","parameterCategory":2,"la1":30.2991,"la2":30.254,"lo1":-89.0895,"lo2":-89.0444,"dy":0.0017,"dx":0.0017,"nx":28,"ny":28,"refTime":"2024-03-03T09:00:00:Z","depth":"4","parameterNumber":3,"parameterNumberName":"V-component_of_CURRENTS"},"data":[0,0,0,0,0,0,0,0,0,0,0,0,0,0,0,0,0,0,0,0,0,0,0,0,0,0,0,0,0,0,0,0,0,0,0,0,0,0,0,0,0,0,0,0,0,0,0,0,0,0,0,0,0,0,0,0,0,0,0.0087,0.0086,0,0.0027,0.0026,0.0025,-0.0004,-0.0004,-0.0004,-0.0004,-0.0062,-0.0063,-0.0065,0,0,0,0,0,0,0,0,0,0,0,0,0,0.0117,0.0117,0.0087,0.0086,0.0086,0.0027,0.0026,0.0025,-0.0004,-0.0004,-0.0004,-0.0004,-0.0061,-0.0063,-0.0065,0,0,0,0,0,0,0,0,0,0,0,0,0,0.0084,0.0117,0.0087,0.0065,0.0062,0.0027,0.0026,0.0025,-0.0004,-0.0004,-0.0004,-0.0004,-0.006,-0.0063,-0.0065,-0.0084,0,0,-0.0073,-0.0074,0,0,0,0,0,0,0,0,0.0086,0.0083,0.0069,0.0066,0.0064,0.002,0.0015,-0.0011,-0.0004,0.002,-0.0004,-0.0004,-0.0034,-0.0038,-0.0052,-0.0087,-0.0089,-0.0073,-0.0075,-0.0076,-0.0076,0,0,0,0,0,0,0,0.0088,0.0085,0.0062,0.0068,0.0065,0.0037,0.0033,0.001,-0.0008,0.0018,0.0016,0.0011,-0.0035,-0.0049,-0.0053,-0.009,-0.0073,-0.0075,-0.0077,-0.0078,-0.014,-0.014,0,0,0,0,0,0,0.0101,0.0087,0.0064,0.006,0.0077,0.0037,0.0032,0.0033,-0.0008,-0.0014,0.0011,0.001,-0.0045,-0.005,-0.0055,-0.0072,-0.0076,-0.0078,-0.0079,-0.014,-0.014,-0.014,0,0,0,0,0,0,0.0102,0.01,0.0066,0.0073,0.0067,0.0037,0.0037,0.0031,0.0018,-0.0013,-0.0019,0.0003,-0.0045,-0.0052,-0.0076,-0.0075,-0.0079,-0.0081,-0.0139,-0.014,-0.014,-0.0111,0,0,0,0,0,0,0.0103,0.0101,0.0103,0.0074,0.0067,0.0048,0.0037,0.003,0.0015,0.0013,-0.0021,-0.0026,-0.0046,-0.0072,-0.0079,-0.0078,-0.0083,-0.0139,-0.014,-0.014,-0.0112,-0.011,-0.0109,0,0,0,0,0,0.0105,0.0105,0.0104,0.01,0.0072,0.0048,0.0041,0.0019,0.0015,0.0008,-0.0014,-0.0025,-0.0079,-0.0075,-0.0082,-0.0082,-0.0139,-0.0139,-0.014,-0.0112,-0.0111,-0.0109,0,0,0,0,0,0,0.0111,0.0101,0.0099,0.0095,0.0076,0.0043,0.0034,0.0021,-0.0003,-0.0003,-0.0031,-0.0038,-0.0058,-0.0076,-0.0071,-0.0101,-0.0109,-0.0111,-0.0086,-0.0085,-0.0083,-0.0063,-0.0085,0,0,0,0,0,0.0117,0.012,0.01,0.0096,0.009,0.0064,0.0051,0.0038,0.0014,0.0004,-0.0021,-0.0045,-0.0067,-0.0079,-0.0102,-0.0121,-0.0132,-0.0125,-0.0124,-0.0123,-0.0112,-0.0122,-0.012,-0.0141,-0.0141,-0.0141,0,0,0.0118,0.0113,0.0113,0.0099,0.0083,0.0075,0.0056,0.0041,0.0034,0.0001,-0.0017,-0.0042,-0.0071,-0.0091,-0.0101,-0.0105,-0.0126,-0.0123,-0.0122,-0.0111,-0.0122,-0.0119,-0.0117,-0.0141,-0.0141,-0.0141,0,0,0.012,0.0118,0.0122,0.0111,0.0095,0.0081,0.008,0.0051,0.004,0.0019,-0.0004,-0.0026,-0.0064,-0.0083,-0.0096,-0.0101,-0.0118,-0.011,-0.0088,-0.0098,-0.0096,-0.0094,-0.0118,-0.0119,-0.011,-0.011,-0.011,0,0.0122,0.0127,0.0115,0.0114,0.0112,0.0088,0.0091,0.0072,0.0038,0.0036,0.0019,-0.0027,-0.0058,-0.0072,-0.0078,-0.0097,-0.0108,-0.0091,-0.0094,-0.0093,-0.0091,-0.0117,-0.0117,-0.0108,-0.0108,-0.0109,-0.0109,0,0.0125,0.0131,0.013,0.013,0.0123,0.012,0.0103,0.0093,0.0079,0.0064,0.0046,0.0001,-0.0018,-0.004,-0.0064,-0.0069,-0.0084,-0.009,-0.0095,-0.0087,-0.0115,-0.0116,-0.0106,-0.0107,-0.0107,-0.0107,0,0,0.0132,0.0135,0.0137,0.015,0.0137,0.0137,0.0131,0.0126,0.014,0.0096,0.0106,0.0049,0.0035,0.0018,-0.0015,-0.0035,-0.0052,-0.0057,-0.0058,-0.0074,-0.0081,-0.0108,-0.0112,-0.0055,-0.0055,-0.0055,-0.0109,0,0.0142,0.0157,0.0153,0.0171,0.0181,0.0171,0.0176,0.017,0.0158,0.016,0.0116,0.011,0.0055,0.0052,0.0022,-0.0027,-0.0051,-0.0037,-0.0092,-0.0093,-0.0111,-0.0113,-0.0054,-0.011,-0.011,-0.0111,-0.0111,0,0.0151,0.0165,0.0187,0.0217,0.0222,0.0231,0.0256,0.0259,0.0252,0.0246,0.0226,0.0194,0.0154,0.0114,0.0032,0.0046,-0.0012,-0.0058,-0.0061,-0.0092,-0.0122,-0.0117,-0.0114,-0.0114,-0.0113,-0.0113,-0.0113,0,0.0174,0.0194,0.022,0.0225,0.0247,0.0265,0.0283,0.0289,0.0315,0.0309,0.0324,0.0267,0.025,0.0172,0.0059,0.0054,-0.0032,-0.0047,-0.0129,-0.0132,-0.0104,-0.0105,-0.0096,-0.0095,-0.0095,-0.0095,-0.0095,0,0.0191,0.0215,0.0239,0.0254,0.0308,0.0309,0.0369,0.0374,0.0399,0.0437,0.038,0.0383,0.0267,0.0196,0.009,-0.003,-0.0009,-0.0122,-0.0143,-0.0094,-0.0093,-0.0106,-0.0106,-0.0097,-0.0097,-0.0096,-0.0096,0,0.0208,0.0219,0.0259,0.0297,0.032,0.0362,0.0437,0.0479,0.049,0.0537,0.054,0.0479,0.0377,0.0243,0.011,0.0017,-0.0097,-0.0144,-0.009,-0.0108,-0.0199,-0.0198,-0.023,-0.0232,-0.0233,-0.0234,-0.0234,0,0.0217,0.0237,0.0298,0.0341,0.0363,0.0432,0.0488,0.0525,0.0571,0.0588,0.0611,0.053,0.0465,0.0261,0.011,-0.0094,-0.0128,-0.0184,-0.0189,-0.0194,-0.0211,-0.0208,-0.0205,-0.0236,-0.0236,-0.0237,-0.0237,0,0.0239,0.026,0.0298,0.0385,0.0452,0.0533,0.0608,0.0646,0.0686,0.0694,0.0673,0.0561,0.0441,0.0263,0.01,-0.0047,-0.0145,-0.0196,-0.0195,-0.02,-0.0201,-0.0216,-0.0212,-0.0241,-0.024,-0.024,-0.024,0,0.0261,0.0295,0.0352,0.0432,0.0519,0.0604,0.0643,0.0693,0.0736,0.074,0.0727,0.0592,0.0513,0.0286,0.0137,-0.0014,-0.0055,-0.0097,-0.0102,-0.0099,-0.0055,-0.0037,-0.0039,0,0,0,0,0,0.0279,0.0325,0.04,0.0489,0.0573,0.0628,0.0713,0.0742,0.077,0.0764,0.0749,0.0631,0.0407,0.0312,0.0157,0.0102,-0.0089,-0.0086,-0.0142,-0.0262,-0.0257,-0.0232,0,0,0,0,0,0,0.0296,0.036,0.0401,0.052,0.0588,0.069,0.0744,0.0766,0.0762,0.0759,0.0643,0.0589,0.037,0.0494,0.0152,0.0106,0.0048,-0.019,-0.0193,-0.0264,-0.026,-0.0257,-0.0229,0,0,0,0,0]}]]